Reading, PA

12:22 PM EDT on October 23, 2019 (GMT -0400)
Reading Regional-Spaatz

Weather History for KRDG - August, 2019

Change the Weather History Date:

Wednesday, August 14, 2019

  Actual Average Record
Temperature  
Mean Temperature 79 °F 73 °F  
Max Temperature 87 °F 84 °F 100 °F (2002)
Min Temperature 71 °F 63 °F 49 °F (1941)
Degree Days  
Heating Degree Days 0 0  
Month to date heating degree days 0 0  
Since 1 June heating degree days 16 25  
Since 1 July heating degree days 0 1  
Cooling Degree Days 14 9  
Month to date cooling degree days 161 126  
Year to date cooling degree days 899 678  
Since 1 June cooling degree days 794 618  
Growing Degree Days 28 (Base 50)    
Moisture  
Dew Point 72 °F    
Average Humidity 83    
Maximum Humidity 100    
Minimum Humidity 65    
Precipitation  
Precipitation 0.02 in 0.12 in 1.88 in (1889)
Month to date precipitation 0.88 1.62  
Year to date precipitation 39.17 26.94  
Sea Level Pressure  
Sea Level Pressure 29.83 in    
Wind  
Wind Speed 3 mph (North)    
Max Wind Speed 14 mph    
Max Gust Speed 18 mph    
Visibility 7 miles    
Events Rain , Thunderstorm    
T = Trace of Precipitation, MM = Missing Value Source: NWS Daily Summary

Daily Weather History Graph

Daily Weather History Graph

Search for Another Location

Airport or City:

Astronomy

Aug. 14, 2019 Rise Set
Actual Time 6:13 AM EDT 8:02 PM EDT
Civil Twilight 5:44 AM EDT 8:32 PM EDT
Nautical Twilight 5:08 AM EDT 9:07 PM EDT
Astronomical Twilight 4:30 AM EDT 9:45 PM EDT
Moon 7:55 PM EDT (8/14) 5:08 AM EDT (8/14)
Length of Visible Light 14h 47m
Length of Day
13h 49m
Waxing Gibbous, 99% of the Moon is Illuminated
Aug 14
Waxing Gibbous
Aug 15
Full
Aug 23
Last Quarter
Aug 30
New
Sep 5
First Quarter

Hourly Weather History & Observations

Time (EDT) Temp. Heat Index Dew Point Humidity Pressure Visibility Wind Dir Wind Speed Gust Speed Precip Events Conditions
12:54 AM 73.0 °F - 72.0 °F 96% 29.79 in 10.0 mi North 4.6 mph - N/A   Overcast
1:54 AM 73.0 °F - 73.0 °F 100% 29.77 in 10.0 mi Calm Calm - N/A   Overcast
2:54 AM 73.0 °F - 72.0 °F 96% 29.77 in 10.0 mi Calm Calm - N/A   Overcast
3:54 AM 73.0 °F - 72.0 °F 96% 29.77 in 10.0 mi Calm Calm - N/A   Overcast
4:54 AM 72.0 °F - 72.0 °F 100% 29.77 in 10.0 mi Calm Calm - N/A   Partly Cloudy
5:54 AM 71.1 °F - 71.1 °F 100% 29.78 in 3.0 mi Calm Calm - N/A   Scattered Clouds
6:54 AM 72.0 °F - 71.1 °F 97% 29.81 in 3.0 mi NW 3.5 mph - N/A   Haze
7:16 AM 72.0 °F - 72.0 °F 100% 29.79 in 3.0 mi Calm Calm - N/A Thunderstorm Haze
7:31 AM 72.0 °F - 72.0 °F 100% 29.81 in 3.0 mi Calm Calm - N/A   Haze
7:54 AM 73.0 °F - 72.0 °F 96% 29.81 in 3.0 mi Calm Calm - N/A   Haze
8:54 AM 73.0 °F - 72.0 °F 96% 29.83 in 3.0 mi North 3.5 mph - 0.00 in   Haze
9:54 AM 75.0 °F - 72.0 °F 90% 29.82 in 3.0 mi North 4.6 mph - 0.00 in   Mostly Cloudy
10:54 AM 77.0 °F - 72.0 °F 84% 29.84 in 3.0 mi NNW 5.8 mph - N/A   Overcast
11:54 AM 80.1 °F 83.6 °F 71.1 °F 74% 29.82 in 3.0 mi NE 4.6 mph - N/A   Scattered Clouds
12:54 PM 82.0 °F 86.3 °F 71.1 °F 69% 29.83 in 10.0 mi North 5.8 mph - N/A   Mostly Cloudy
1:54 PM 82.9 °F 88.8 °F 73.0 °F 72% 29.83 in 10.0 mi SW 5.8 mph - N/A   Mostly Cloudy
2:54 PM 84.0 °F 89.6 °F 72.0 °F 67% 29.82 in 10.0 mi South 5.8 mph - N/A   Scattered Clouds
3:54 PM 84.0 °F 89.0 °F 71.1 °F 65% 29.83 in 10.0 mi Calm Calm - N/A   Scattered Clouds
3:59 PM 84.0 °F 89.0 °F 71.1 °F 65% 29.83 in 7.0 mi Calm Calm - N/A   Haze
4:12 PM 82.9 °F 87.5 °F 71.1 °F 67% 29.82 in 10.0 mi NNE 8.1 mph - N/A   Mostly Cloudy
4:16 PM 82.9 °F 87.5 °F 71.1 °F 67% 29.82 in 7.0 mi NE 6.9 mph - N/A   Haze
4:54 PM 82.9 °F 88.0 °F 72.0 °F 69% 29.83 in 6.0 mi SE 6.9 mph - N/A   Haze
5:54 PM 82.9 °F 88.0 °F 72.0 °F 69% 29.84 in 10.0 mi Calm Calm - N/A Thunderstorm Scattered Clouds
6:19 PM 79.0 °F - 71.1 °F 77% 29.84 in 6.0 mi North 11.5 mph - 0.00 in Rain , Thunderstorm Light Rain
6:54 PM 75.9 °F - 73.0 °F 91% 29.85 in 4.0 mi Calm Calm - 0.02 in Thunderstorm Mostly Cloudy
6:59 PM 75.9 °F - 73.0 °F 91% 29.85 in 6.0 mi Calm Calm - 0.02 in Thunderstorm Mostly Cloudy
7:10 PM 75.9 °F - 72.0 °F 87% 29.84 in 6.0 mi NNE 4.6 mph - N/A Thunderstorm Mostly Cloudy
7:35 PM 75.9 °F - 73.0 °F 91% 29.86 in 10.0 mi SSW 5.8 mph - N/A   Scattered Clouds
7:54 PM 75.0 °F - 73.0 °F 94% 29.87 in 10.0 mi Calm Calm - N/A   Scattered Clouds
8:54 PM 73.9 °F - 73.0 °F 97% 29.89 in 10.0 mi North 3.5 mph - N/A   Clear
9:54 PM 72.0 °F - 72.0 °F 100% 29.93 in 10.0 mi Calm Calm - N/A   Clear
10:54 PM 72.0 °F - 71.1 °F 97% 29.93 in 4.0 mi NNE 3.5 mph - N/A   Scattered Clouds
11:11 PM 72.0 °F - 71.1 °F 97% 29.93 in 10.0 mi North 3.5 mph - N/A   Mostly Cloudy
11:54 PM 72.0 °F - 71.1 °F 97% 29.94 in 10.0 mi NW 3.5 mph - N/A   Mostly Cloudy